When you browse on this site, cookies collect data to enhance your experience and personalize the content and advertising you see.
Visit our Privacy Policy to learn more. By continuing to use the site, you agree to this use of cookies and data.
  • In Latvia
  • List of Countries
  • For 7 days
  • Water Temperature
  • Satellite Maps
  • Weather Map
  • Weather Widgets
  • user-avatar
    Login

    Hourly Weather Prutz

    Today, 25 May, Saturday

    Time Temperature Precipitation Wind Pressure Humidity
    00:00 +6°C° 0.1 mm 1 mps 630 mmHg 95%
    01:00 +5°C° 0 mm 0 mps 631 mmHg 93%
    02:00 +6°C° 0.1 mm 1 mps 631 mmHg 92%
    03:00 +6°C° 0.1 mm 1 mps 631 mmHg 92%
    04:00 +6°C° 0.1 mm 1 mps 630 mmHg 91%
    05:00 +7°C° 0 mm 1 mps 631 mmHg 89%
    06:00 +7°C° 0 mm 0 mps 632 mmHg 87%
    07:00 +9°C° 0 mm 0 mps 632 mmHg 85%
    08:00 +10°C° 0.2 mm 0 mps 632 mmHg 81%
    09:00 +11°C° 0.2 mm 1 mps 633 mmHg 78%
    10:00 +12°C° 0.2 mm 1 mps 633 mmHg 75%
    11:00 +12°C° 0.5 mm 1 mps 633 mmHg 74%
    12:00 +13°C° 0.5 mm 1 mps 633 mmHg 73%
    13:00 +13°C° 0.5 mm 1 mps 633 mmHg 72%
    14:00 +12°C° 1 mm 1 mps 633 mmHg 77%
    15:00 +12°C° 1 mm 1 mps 633 mmHg 82%
    16:00 +11°C° 1 mm 1 mps 632 mmHg 86%
    17:00 +10°C° 1.6 mm 1 mps 632 mmHg 90%
    18:00 +10°C° 1.6 mm 1 mps 632 mmHg 93%
    19:00 +9°C° 1.6 mm 1 mps 632 mmHg 97%
    20:00 +8°C° 1.5 mm 1 mps 632 mmHg 97%
    21:00 +8°C° 1.5 mm 1 mps 632 mmHg 97%
    22:00 +8°C° 1.5 mm 1 mps 632 mmHg 97%
    23:00 +8°C° 1.4 mm 1 mps 632 mmHg 97%

    Tomorrow, 26 May, Sunday

    Time Temperature Precipitation Wind Pressure Humidity
    00:00 +6°C° 1.4 mm 0 mps 632 mmHg 97%
    01:00 +6°C° 1.4 mm 0 mps 632 mmHg 97%
    02:00 +6°C° 0.5 mm 0 mps 632 mmHg 96%
    03:00 +6°C° 0.5 mm 0 mps 632 mmHg 96%
    04:00 +6°C° 0.5 mm 0 mps 632 mmHg 96%
    05:00 +6°C° 0.1 mm 0 mps 632 mmHg 94%
    06:00 +7°C° 0.1 mm 0 mps 632 mmHg 93%
    07:00 +8°C° 0.1 mm 0 mps 633 mmHg 91%
    08:00 +10°C° 0.1 mm 1 mps 633 mmHg 88%
    09:00 +11°C° 0.1 mm 1 mps 633 mmHg 85%
    10:00 +11°C° 0.1 mm 1 mps 633 mmHg 82%
    11:00 +12°C° 0.2 mm 1 mps 634 mmHg 81%
    12:00 +12°C° 0.2 mm 1 mps 634 mmHg 80%
    13:00 +13°C° 0.2 mm 1 mps 634 mmHg 78%
    14:00 +13°C° 0.2 mm 1 mps 634 mmHg 77%
    15:00 +14°C° 0.2 mm 1 mps 634 mmHg 75%
    16:00 +14°C° 0.2 mm 1 mps 634 mmHg 74%
    17:00 +13°C° 0.5 mm 1 mps 633 mmHg 80%
    18:00 +12°C° 0.5 mm 1 mps 633 mmHg 87%
    19:00 +11°C° 0.5 mm 1 mps 633 mmHg 93%
    20:00 +11°C° 0.5 mm 1 mps 633 mmHg 95%
    21:00 +10°C° 0.5 mm 1 mps 633 mmHg 96%
    22:00 +8°C° 0.5 mm 0 mps 633 mmHg 97%
    23:00 +8°C° 0.2 mm 0 mps 632 mmHg 98%

    Day after tomorrow, 27 May, Monday

    Time Temperature Precipitation Wind Pressure Humidity
    00:00 +7°C° 0.2 mm 0 mps 632 mmHg 98%
    01:00 +7°C° 0.2 mm 0 mps 632 mmHg 98%
    02:00 +7°C° 0.2 mm 0 mps 632 mmHg 97%
    03:00 +7°C° 0.2 mm 0 mps 631 mmHg 97%
    04:00 +7°C° 0.2 mm 0 mps 631 mmHg 97%
    05:00 +9°C° 0.1 mm 1 mps 631 mmHg 95%
    06:00 +10°C° 0.1 mm 1 mps 632 mmHg 94%
    07:00 +10°C° 0.1 mm 1 mps 632 mmHg 93%
    08:00 +11°C° 0.2 mm 1 mps 632 mmHg 90%
    09:00 +12°C° 0.2 mm 1 mps 632 mmHg 88%
    10:00 +12°C° 0.2 mm 1 mps 632 mmHg 85%
    11:00 +13°C° 0.4 mm 1 mps 632 mmHg 84%
    12:00 +13°C° 0.4 mm 1 mps 632 mmHg 83%
    13:00 +13°C° 0.4 mm 2 mps 631 mmHg 83%
    14:00 +13°C° 0.3 mm 2 mps 631 mmHg 83%
    15:00 +13°C° 0.3 mm 2 mps 631 mmHg 84%
    16:00 +13°C° 0.3 mm 2 mps 630 mmHg 84%
    17:00 +13°C° 0.5 mm 2 mps 630 mmHg 88%
    18:00 +12°C° 0.5 mm 2 mps 630 mmHg 91%
    19:00 +12°C° 0.5 mm 2 mps 629 mmHg 95%
    20:00 +11°C° 1.1 mm 1 mps 629 mmHg 96%
    21:00 +10°C° 1.1 mm 1 mps 629 mmHg 97%
    22:00 +10°C° 1.1 mm 1 mps 629 mmHg 98%
    23:00 +10°C° 2.7 mm 1 mps 629 mmHg 98%

    28 May, Tuesday

    Time Temperature Precipitation Wind Pressure Humidity
    00:00 +10°C° 2.7 mm 1 mps 628 mmHg 98%
    01:00 +9°C° 2.7 mm 1 mps 628 mmHg 98%
    02:00 +9°C° 2.8 mm 1 mps 627 mmHg 98%
    03:00 +9°C° 2.8 mm 1 mps 627 mmHg 98%
    04:00 +8°C° 2.8 mm 0 mps 626 mmHg 98%
    05:00 +8°C° 2.4 mm 0 mps 626 mmHg 98%
    06:00 +8°C° 2.4 mm 0 mps 626 mmHg 97%
    07:00 +7°C° 2.4 mm 0 mps 626 mmHg 97%
    08:00 +8°C° 1.9 mm 0 mps 626 mmHg 96%
    09:00 +8°C° 1.9 mm 0 mps 626 mmHg 94%
    10:00 +8°C° 1.9 mm 0 mps 626 mmHg 93%
    11:00 +9°C° 2 mm 1 mps 626 mmHg 94%
    12:00 +9°C° 2 mm 1 mps 626 mmHg 96%
    13:00 +8°C° 2 mm 2 mps 626 mmHg 97%
    14:00 +7°C° 1.3 mm 2 mps 626 mmHg 97%
    15:00 +7°C° 1.3 mm 2 mps 626 mmHg 97%
    16:00 +7°C° 1.3 mm 2 mps 626 mmHg 97%
    17:00 +6°C° 1.1 mm 2 mps 626 mmHg 97%
    18:00 +6°C° 1.1 mm 2 mps 626 mmHg 98%
    19:00 +6°C° 1.1 mm 2 mps 626 mmHg 98%
    20:00 +5°C° 1.2 mm 2 mps 627 mmHg 98%
    21:00 +5°C° 1.2 mm 2 mps 627 mmHg 98%
    22:00 +5°C° 1.2 mm 2 mps 627 mmHg 98%
    23:00 +4°C° 1.1 mm 2 mps 627 mmHg 98%

    29 May, Wednesday

    Time Temperature Precipitation Wind Pressure Humidity
    00:00 +4°C° 1.1 mm 2 mps 627 mmHg 98%
    01:00 +3°C° 1.1 mm 3 mps 627 mmHg 98%
    02:00 +4°C° 1.3 mm 2 mps 627 mmHg 98%
    03:00 +3°C° 1.3 mm 2 mps 627 mmHg 98%
    04:00 +3°C° 1.3 mm 2 mps 627 mmHg 98%
    05:00 +3°C° 1.1 mm 2 mps 627 mmHg 97%
    06:00 +3°C° 1.1 mm 2 mps 627 mmHg 97%
    07:00 +3°C° 1.1 mm 3 mps 628 mmHg 97%
    08:00 +3°C° 1 mm 3 mps 628 mmHg 97%
    09:00 +4°C° 1 mm 2 mps 629 mmHg 97%
    10:00 +4°C° 1 mm 2 mps 629 mmHg 97%
    11:00 +4°C° 0.9 mm 3 mps 630 mmHg 96%
    12:00 +4°C° 0.9 mm 3 mps 630 mmHg 96%
    13:00 +4°C° 0.9 mm 3 mps 630 mmHg 95%
    14:00 +5°C° 0.4 mm 3 mps 631 mmHg 95%
    15:00 +5°C° 0.4 mm 3 mps 631 mmHg 94%
    16:00 +5°C° 0.4 mm 3 mps 631 mmHg 93%
    17:00 +5°C° 0.4 mm 3 mps 632 mmHg 94%
    18:00 +5°C° 0.4 mm 2 mps 632 mmHg 95%
    19:00 +5°C° 0.4 mm 2 mps 632 mmHg 96%
    20:00 +4°C° 0.4 mm 2 mps 633 mmHg 97%
    21:00 +4°C° 0.4 mm 2 mps 633 mmHg 97%
    22:00 +5°C° 0.4 mm 1 mps 634 mmHg 97%
    23:00 +5°C° 0.4 mm 1 mps 634 mmHg 97%

    30 May, Thursday

    Time Temperature Precipitation Wind Pressure Humidity
    00:00 +4°C° 0.4 mm 2 mps 634 mmHg 97%
    01:00 +4°C° 0.4 mm 2 mps 635 mmHg 97%
    02:00 +5°C° 0.3 mm 1 mps 635 mmHg 97%
    03:00 +5°C° 0.3 mm 1 mps 635 mmHg 98%
    04:00 +5°C° 0.3 mm 1 mps 635 mmHg 98%
    05:00 +5°C° 0.1 mm 1 mps 635 mmHg 97%
    06:00 +6°C° 0.1 mm 1 mps 636 mmHg 97%
    07:00 +6°C° 0.1 mm 1 mps 636 mmHg 97%
    08:00 +7°C° 0.1 mm 1 mps 636 mmHg 94%
    09:00 +8°C° 0.1 mm 1 mps 636 mmHg 92%
    10:00 +8°C° 0.1 mm 1 mps 636 mmHg 89%
    11:00 +9°C° 0.1 mm 1 mps 636 mmHg 87%
    12:00 +8°C° 0.1 mm 2 mps 636 mmHg 85%
    13:00 +9°C° 0.1 mm 2 mps 637 mmHg 83%
    14:00 +9°C° 0.2 mm 2 mps 636 mmHg 83%
    15:00 +9°C° 0.2 mm 2 mps 636 mmHg 83%
    16:00 +9°C° 0.2 mm 2 mps 636 mmHg 83%
    17:00 +9°C° 0.1 mm 2 mps 636 mmHg 86%
    18:00 +8°C° 0.1 mm 2 mps 636 mmHg 90%
    19:00 +8°C° 0.1 mm 1 mps 636 mmHg 93%
    20:00 +7°C° 0 mm 1 mps 636 mmHg 94%
    21:00 +6°C° 0 mm 1 mps 636 mmHg 95%
    22:00 +5°C° 0 mm 1 mps 636 mmHg 97%
    23:00 +5°C° 0 mm 1 mps 636 mmHg 96%
    Show more